Location: C�mpuri de-Sus
(45.9500°N, 22.5500°E)
Time: 12:24:17
(UTC+00:00)

CZ-4B R/B - Pass Details

Date: 24 October 2021
Orbit: 808 x 882 km, 99.1° (Epoch: 06 December)

Event Time Altitude Azimuth Distance (km) Brightness Sun altitude
Rises 16:44:05 0° 171° (S) 3,462 6.3 -13.8°
Reaches altitude 10° 16:46:29 10° 174° (S) 2,532 5.6 -14.2°
Maximum altitude 16:52:06 68° 257° (WSW) 949 3.7 -15.2°
Drops below altitude 10° 16:57:46 10° 341° (NNW) 2,546 5.9 -16.2°
Sets 17:00:11 0° 344° (NNW) 3,483 6.6 -16.6°
